Temp
6 6 6 6 7 7 7 7 7 8 8 9 8 8 8 8 8 9 9 9 9 8 9 9 9 9 9 9 9 9 10 12 13 14 15 15 15 15 14 13 13 13 13 13 13
5 5 6 6 6 7 7 7 7 7 7 8 8 8 8 8 8 9 9 9 9 9 9 8 9 9 9 9 8 9 10 12 13 14 14 15 15 15 14 14 13 13 13 13 13
5 5 5 5 5 6 6 7 7 7 7 8 8 8 8 8 8 8 9 9 10 9 9 9 9 8 8 9 9 10 10 11 13 13 14 14 14 14 14 14 13 13 13 13 12
5 5 5 5 5 5 5 6 6 6 7 7 7 7 7 7 7 7 8 9 9 9 9 9 9 8 8 9 10 10 11 11 12 12 13 13 13 14 13 13 13 13 12 12 12
4 4 4 4 4 4 4 4 5 5 6 6 6 7 7 7 8 7 7 7 9 9 9 9 9 8 9 9 10 11 11 11 12 12 12 13 13 13 13 13 12 12 12 11 12
2 2 2 2 2 2 2 2 2 2 2 3 4 5 6 7 6 6 6 6 7 7 7 8 8 8 9 10 10 11 11 11 11 11 12 12 12 12 12 12 12 12 12 12 12
1 1 1 0 0 0 1 1 1 1 1 1 1 1 4 6 5 5 5 5 6 6 6 6 7 7 8 9 10 10 10 11 11 11 11 11 11 12 12 12 12 12 12 12 12
-1 -1 -1 -1 -1 -1 -1 -0 -0 -0 -0 -0 -0 -0 2 3 4 4 4 5 5 5 6 6 5 6 7 8 9 9 10 10 11 11 11 11 11 11 12 12 12 13 13 13 12
-1 -0 -0 -0 -1 -1 -1 -2 -2 -1 -1 -1 -1 -1 0 -1 2 3 4 4 4 4 5 5 6 6 6 7 8 9 10 11 11 12 12 12 11 12 12 12 12 12 12 12 12
-1 -1 -2 -2 -1 -1 -1 -1 -1 -1 -2 -2 -1 -4 -0 -1 -1 -0 -0 1 3 3 2 4 3 4 5 7 8 9 10 10 11 12 12 12 12 13 13 12 12 12 12 12 12
-2 -2 -2 -2 -3 -3 -2 -2 -4 -4 -4 -3 -3 -3 -1 -2 -2 -2 -1 -1 -1 -0 1 2 3 5 7 7 9 10 11 11 12 12 12 12 12 12 13 12 11 12 12 12 11
-3 -3 -4 -4 -4 -4 -4 -4 -5 -4 -3 -2 -1 -1 -2 -2 -3 -2 -1 -2 -1 0 1 3 3 8 7 8 8 8 9 10 11 12 12 12 11 11 11 11 11 11 11 11 11
-4 -4 -4 -4 -4 -4 -4 -6 -5 -6 -7 -2 -1 -2 -2 -3 -2 -2 -2 -2 -1 1 2 3 6 5 6 7 8 9 9 10 10 11 11 11 11 11 11 10 10 11 11 11 11
-4 -4 -5 -4 -5 -5 -6 -6 -7 -7 -6 -2 -2 -3 -3 -3 -2 -2 -2 -1 -1 0 2 3 4 6 6 7 8 9 9 9 10 10 11 11 13 12 12 11 11 11 11 11 11
-5 -5 -5 -5 -5 -6 -7 -8 -8 -7 -3 -1 -2 -3 -2 -2 -1 -1 -1 -2 -1 0 1 3 4 5 6 7 8 9 10 10 10 10 10 10 11 11 12 12 12 12 12 12 11
-5 -5 -5 -5 -5 -6 -8 -8 -8 -7 -2 -1 -2 -3 -2 -1 -1 -0 -1 -1 -1 -1 1 2 4 5 6 7 8 9 9 10 10 10 11 10 11 11 12 13 13 12 12 12 12
-4 -4 -5 -5 -6 -6 -6 -7 -7 -4 -3 -3 -4 -4 -3 -2 -1 -0 -0 -1 -1 0 0 1 3 4 6 6 8 9 9 10 10 11 12 11 11 12 12 13 12 12 12 12 11
-4 -4 -4 -5 -6 -6 -7 -7 -5 -3 -3 -3 -3 -3 -2 -2 -1 -0 -1 -1 -0 0 1 2 3 3 5 7 7 9 9 11 10 12 13 12 12 13 13 12 12 12 12 12 11
-4 -5 -5 -5 -6 -6 -6 -7 -6 -4 -4 -4 -4 -4 -3 -3 -2 -1 -1 -1 -2 -3 -3 2 4 5 5 6 8 9 9 10 12 12 14 14 14 13 13 13 12 12 12 12 12
-4 -7 -6 -6 -6 -6 -6 -6 -5 -5 -5 -5 -5 -4 -3 -3 -2 -1 -1 -3 -3 -3 -3 -1 3 4 6 5 7 8 9 10 11 12 13 14 14 14 13 13 13 13 13 11 12
-4 -6 -6 -6 -6 -6 -7 -5 -5 -5 -5 -6 -5 -4 -4 -5 -4 -3 -3 -3 -4 -4 -4 -2 -1 3 5 6 7 8 10 10 11 12 14 13 14 13 13 12 13 13 13 12 12
-5 -5 -5 -5 -7 -7 -7 -6 -6 -5 -5 -5 -6 -5 -5 -5 -4 -2 -4 -2 -4 -4 -4 -1 -2 0 5 6 7 9 10 9 11 12 12 14 14 13 12 12 12 13 12 12 12
-7 -6 -6 -7 -7 -7 -7 -6 -6 -6 -5 -5 -6 -5 -5 -5 -5 -4 -5 -5 -5 -5 -4 -3 -2 -1 3 6 7 8 9 10 10 12 12 13 14 12 12 12 11 12 11 11 11
-7 -5 -5 -7 -7 -8 -7 -6 -6 -6 -6 -5 -5 -5 -6 -5 -4 -6 -5 -5 -6 -5 -5 -5 -4 -1 4 7 8 9 9 10 10 11 12 12 13 12 12 12 11 11 10 9 11
-6 -6 -7 -7 -7 -7 -7 -7 -6 -6 -7 -6 -5 -5 -5 -4 -3 -4 -5 -5 -5 -5 -5 -4 -3 -0 -1 3 8 9 10 10 10 11 12 12 12 13 12 12 10 10 10 10 10
-5 -5 -6 -7 -7 -7 -7 -7 -6 -7 -7 -6 -6 -5 -5 -5 -5 -5 -4 -4 -5 -5 -4 -4 -2 -0 -1 -0 5 9 9 10 10 10 11 12 12 12 12 11 10 10 10 10 9
-5 -6 -7 -8 -7 -7 -7 -8 -8 -7 -7 -7 -6 -6 -6 -5 -5 -5 -5 -5 -5 -5 -5 -5 -3 -0 -2 0 6 8 9 10 10 10 11 11 11 10 10 9 8 9 10 10 9
Height
3127 3126 3126 3124 3124 3125 3124 3124 3124 3124 3124 3125 3126 3127 3129 3132 3135 3135 3137 3143 3145 3148 3150 3151 3152 3153 3153 3154 3156 3161 3162 3157 3157 3158 3157 3157 3156 3157 3156 3157 3158 3158 3158 3157 3156
3119 3119 3118 3117 3117 3116 3116 3114 3115 3115 3116 3116 3117 3118 3121 3123 3125 3126 3135 3134 3137 3140 3144 3146 3147 3149 3147 3149 3151 3153 3152 3151 3155 3154 3154 3152 3152 3154 3154 3152 3153 3154 3154 3154 3153
3112 3111 3110 3109 3108 3108 3106 3105 3105 3105 3106 3106 3108 3110 3113 3115 3117 3120 3121 3125 3127 3131 3137 3139 3143 3144 3143 3146 3147 3148 3142 3148 3150 3150 3150 3149 3148 3149 3149 3147 3150 3149 3148 3148 3147
3104 3102 3100 3099 3098 3098 3097 3097 3097 3097 3095 3096 3097 3100 3102 3106 3113 3105 3109 3114 3118 3121 3127 3130 3134 3136 3139 3137 3143 3141 3140 3144 3144 3146 3145 3142 3142 3141 3142 3143 3146 3144 3143 3141 3140
3097 3094 3092 3091 3089 3087 3086 3085 3085 3085 3086 3087 3088 3089 3092 3092 3095 3099 3101 3102 3108 3110 3115 3120 3124 3127 3126 3134 3138 3130 3134 3138 3138 3139 3138 3137 3133 3134 3133 3138 3139 3138 3135 3134 3135
3092 3089 3086 3084 3081 3079 3078 3076 3075 3073 3075 3076 3077 3079 3080 3080 3087 3087 3089 3097 3099 3102 3106 3110 3113 3120 3122 3125 3128 3128 3129 3128 3129 3129 3130 3130 3126 3128 3128 3131 3129 3130 3128 3128 3128
3088 3084 3081 3079 3076 3074 3072 3069 3068 3067 3066 3064 3065 3066 3064 3067 3077 3075 3079 3085 3086 3090 3096 3103 3107 3113 3115 3115 3121 3121 3120 3119 3117 3121 3120 3124 3115 3115 3122 3124 3121 3121 3121 3121 3120
3081 3078 3076 3074 3072 3069 3067 3064 3062 3061 3059 3058 3056 3055 3046 3059 3066 3065 3070 3072 3076 3080 3085 3092 3098 3100 3105 3111 3111 3111 3114 3106 3104 3112 3113 3118 3098 3110 3116 3116 3114 3113 3113 3114 3113
3080 3076 3072 3069 3066 3064 3062 3060 3057 3055 3054 3053 3052 3050 3046 3046 3052 3054 3057 3059 3064 3072 3075 3083 3086 3090 3099 3101 3102 3100 3093 3092 3098 3104 3105 3106 3094 3103 3107 3107 3105 3106 3105 3105 3105
3077 3073 3070 3067 3063 3060 3058 3055 3052 3049 3047 3047 3048 3048 3046 3045 3051 3046 3045 3048 3054 3060 3067 3071 3077 3082 3086 3088 3073 3080 3086 3092 3089 3095 3096 3094 3090 3093 3096 3098 3098 3098 3097 3096 3095
3073 3069 3065 3061 3057 3055 3055 3053 3052 3049 3044 3046 3048 3041 3043 3046 3044 3043 3045 3045 3048 3051 3055 3065 3073 3062 3047 3070 3076 3082 3084 3081 3082 3087 3088 3087 3085 3085 3087 3089 3089 3088 3086 3086 3086
3070 3067 3063 3058 3054 3051 3049 3048 3045 3043 3036 3039 3035 3033 3033 3035 3032 3035 3041 3042 3045 3046 3053 3061 3047 3027 3070 3070 3074 3078 3078 3073 3078 3080 3082 3082 3079 3079 3080 3079 3079 3077 3077 3078 3078
3068 3064 3059 3055 3051 3048 3046 3044 3040 3038 3032 3027 3027 3027 3030 3030 3027 3028 3033 3034 3036 3040 3041 3043 3021 3061 3056 3063 3066 3067 3069 3072 3072 3076 3076 3078 3070 3069 3071 3068 3069 3069 3068 3067 3067
3065 3060 3056 3052 3049 3046 3046 3039 3037 3036 3029 3020 3021 3021 3022 3024 3024 3024 3025 3029 3030 3029 3036 3034 3040 3044 3049 3050 3058 3057 3066 3069 3072 3073 3070 3074 3055 3059 3061 3060 3060 3059 3059 3058 3058
3062 3057 3053 3047 3046 3043 3042 3037 3036 3036 3029 3020 3019 3019 3022 3024 3023 3022 3022 3022 3023 3025 3032 3013 3028 3032 3037 3034 3053 3043 3065 3065 3068 3068 3069 3066 3061 3051 3055 3053 3051 3050 3049 3049 3050
3059 3054 3050 3046 3042 3041 3037 3034 3035 3036 3021 3019 3018 3018 3019 3020 3020 3020 3020 3019 3020 3020 3020 3014 3024 3026 3025 3040 3045 3055 3059 3061 3062 3063 3055 3057 3058 3040 3048 3046 3044 3042 3042 3043 3044
3058 3053 3048 3046 3044 3038 3035 3034 3034 3026 3021 3020 3016 3020 3018 3016 3016 3015 3015 3015 3015 3015 3013 3011 3012 3017 3023 3031 3037 3044 3051 3052 3054 3048 3039 3050 3049 3037 3042 3041 3040 3039 3039 3039 3039
3056 3052 3048 3045 3041 3037 3032 3033 3030 3023 3020 3019 3017 3016 3014 3013 3011 3010 3011 3010 3010 3009 3005 3003 3005 3006 3009 3013 3021 3028 3034 3032 3035 3034 3037 3039 3034 3033 3036 3035 3035 3036 3037 3037 3037
3054 3049 3045 3043 3039 3037 3034 3031 3025 3025 3024 3023 3019 3014 3009 3008 3007 3006 3006 3005 3004 3002 3004 2997 2992 3000 3005 3010 3015 3017 3024 3026 3031 3031 3027 3023 3027 3031 3030 3030 3030 3033 3035 3038 3036
3053 3049 3046 3042 3039 3036 3035 3033 3030 3028 3026 3023 3017 3014 3010 3005 3004 3002 3001 3000 2999 3000 3001 2994 2992 2991 2995 3007 3006 3008 3018 3028 3026 3022 3021 3022 3023 3025 3027 3028 3029 3032 3034 3034 3034
3052 3051 3047 3043 3038 3037 3035 3033 3030 3028 3026 3021 3017 3013 3009 3006 3004 3001 2998 2998 2996 2995 2994 2993 2988 2985 2990 2986 2991 2998 3006 3015 3023 3022 3019 3022 3023 3023 3024 3026 3028 3031 3032 3032 3034
3052 3055 3047 3042 3041 3037 3035 3032 3029 3026 3024 3020 3014 3012 3009 3005 3002 2997 2994 2994 2991 2988 2985 2990 2986 2980 2977 2981 2989 2994 2999 3008 3008 3015 3017 3017 3020 3022 3023 3025 3027 3029 3029 3030 3033
3053 3052 3045 3041 3040 3035 3033 3030 3026 3023 3021 3017 3014 3011 3008 3004 3000 2995 2993 2988 2988 2986 2984 2985 2981 2981 2973 2976 2983 2986 2995 3003 3012 3012 3016 3017 3018 3019 3022 3025 3026 3029 3029 3030 3032
3054 3055 3051 3044 3039 3035 3032 3028 3025 3022 3018 3015 3011 3009 3005 3002 2997 2993 2992 2989 2985 2984 2982 2982 2977 2974 2966 2970 2977 2979 2987 2995 3005 3006 3009 3015 3017 3020 3023 3025 3025 3027 3028 3031 3034
3057 3055 3047 3043 3038 3033 3031 3027 3023 3018 3015 3011 3009 3006 3003 3000 2995 2992 2990 2988 2984 2981 2979 2979 2971 2972 2972 2970 2975 2978 2980 2987 2995 3005 3006 3011 3015 3018 3022 3024 3025 3025 3028 3032 3034
3055 3050 3045 3039 3037 3033 3031 3026 3022 3018 3013 3010 3007 3005 3001 2998 2995 2991 2989 2987 2982 2980 2976 2974 2962 2978 2974 2972 2965 2972 2981 2986 2995 3002 3006 3010 3014 3017 3020 3023 3024 3026 3030 3033 3034
3052 3047 3043 3039 3037 3033 3030 3025 3019 3016 3012 3009 3005 3001 2998 2995 2990 2988 2986 2983 2980 2978 2976 2971 2970 2974 2972 2973 2970 2971 2972 2981 2992 3000 3005 3009 3013 3014 3016 3018 3022 3025 3032 3036 3037
Wind_Speed
35 36 37 38 38 39 39 41 42 43 43 44 42 40 38 37 39 44 44 39 35 30 26 22 21 22 25 26 23 18 25 30 28 26 26 21 22 20 17 17 17 19 22 22 23
35 36 37 38 39 41 43 44 45 45 46 47 47 46 43 42 40 44 43 46 42 38 33 26 25 24 26 26 26 27 32 33 28 26 26 25 26 25 26 24 24 26 23 22 20
37 37 38 39 40 41 42 44 46 47 47 48 49 49 48 47 45 42 44 45 48 45 39 33 29 29 29 27 29 32 41 33 32 30 31 36 35 32 35 35 29 29 26 24 25
35 36 37 38 39 41 43 45 46 47 48 49 48 48 48 47 35 36 43 47 46 48 44 42 39 35 35 35 32 37 40 38 39 38 39 43 42 41 40 37 31 31 29 26 26
33 34 36 37 37 38 39 40 41 44 46 47 49 49 48 48 50 45 39 39 40 42 43 45 45 42 45 40 37 46 46 44 46 45 44 41 45 44 43 36 35 33 33 30 29
26 28 29 30 32 34 35 35 36 38 38 39 41 43 46 51 44 44 49 44 43 39 33 33 47 41 45 46 46 48 48 48 47 47 44 45 48 42 39 37 39 35 37 35 31
21 21 21 21 22 23 25 27 30 31 32 34 35 36 44 48 41 43 40 42 45 49 44 33 33 32 40 47 45 48 52 54 53 46 45 39 48 51 43 39 41 39 38 34 30
26 24 22 21 20 19 19 20 22 22 24 27 29 32 47 38 35 42 41 43 39 43 44 41 22 34 39 32 37 45 46 52 55 49 46 42 56 45 38 38 38 31 32 37 32
25 25 26 26 27 26 24 22 21 20 19 20 22 26 32 25 22 30 39 42 40 39 38 40 43 34 29 38 38 41 50 55 48 42 44 45 54 47 37 37 39 40 37 32 32
26 26 26 26 26 26 25 25 26 25 23 17 16 17 11 14 10 17 15 25 36 38 36 41 40 33 36 41 52 51 48 47 50 44 40 44 50 46 40 36 37 36 38 39 39
23 24 26 27 28 28 27 23 16 20 12 12 15 22 17 17 20 22 18 18 15 25 38 33 37 47 64 50 47 44 37 42 45 40 34 38 42 46 37 37 37 40 41 40 40
23 22 22 22 22 22 21 17 17 22 32 27 31 31 30 26 30 28 19 22 21 25 30 38 53 69 38 41 41 43 43 46 42 36 33 35 37 36 37 40 40 42 39 37 38
26 26 24 22 23 23 19 18 18 19 24 29 24 24 23 19 23 22 21 26 30 27 33 46 65 37 46 41 42 45 44 43 41 32 30 29 41 41 38 40 37 38 38 38 37
27 27 25 23 19 20 13 19 15 14 15 25 8 6 9 6 13 12 15 21 29 37 31 40 47 46 43 50 48 48 42 37 31 29 32 29 33 37 34 35 34 33 32 32 29
28 25 22 22 20 13 13 13 10 6 6 3 5 5 8 9 10 5 7 13 24 29 31 49 41 51 52 54 42 54 34 33 31 33 32 32 29 33 29 32 32 31 29 29 28
27 24 21 22 21 17 14 11 6 5 9 1 3 3 6 9 12 12 11 11 13 22 34 43 37 37 55 47 39 36 34 32 29 30 27 31 31 43 31 29 25 21 18 20 20
25 22 21 18 13 18 13 8 6 10 3 5 7 10 13 14 17 17 18 17 18 17 30 40 41 38 35 48 45 38 34 22 21 23 21 26 27 36 24 20 22 22 15 8 10
23 21 19 16 15 21 11 5 8 10 11 14 17 17 19 20 21 19 18 21 21 24 30 34 38 44 43 42 56 46 47 27 26 11 18 29 23 27 17 15 14 11 12 9 11
22 21 21 20 16 17 13 7 9 16 13 15 18 18 16 9 9 13 19 22 14 12 12 31 39 35 44 36 40 55 50 51 28 29 15 21 15 16 16 13 13 10 11 13 13
22 11 13 23 14 16 10 10 14 13 14 17 20 10 15 17 14 14 16 13 13 15 25 19 34 39 35 40 39 54 48 42 43 23 14 17 11 16 6 8 8 14 11 14 14
19 7 16 18 12 12 9 12 14 14 14 15 18 20 18 13 14 13 10 11 14 14 17 20 18 26 43 50 45 54 46 48 38 30 14 12 15 4 7 10 6 13 13 13 16
15 5 17 14 13 12 12 17 18 15 16 18 16 14 15 18 17 19 11 8 13 15 16 18 9 18 31 41 42 48 45 50 31 29 30 16 9 6 3 6 8 4 12 16 19
12 10 19 14 9 13 14 17 13 12 14 18 13 18 19 17 12 8 8 12 12 13 5 13 19 15 16 30 41 49 48 41 43 28 30 13 3 8 5 7 8 10 13 17 18
12 10 9 11 14 16 17 13 14 14 14 10 19 16 13 17 13 10 16 10 7 10 10 17 21 22 9 23 40 44 51 44 43 31 26 29 16 11 11 7 6 12 16 20 20
12 10 14 11 15 15 16 18 18 20 17 13 11 12 16 20 18 14 16 20 18 14 10 17 33 30 16 13 37 37 43 36 45 33 27 21 20 16 13 5 2 10 19 20 17
19 18 17 14 15 14 15 15 16 20 20 11 12 15 15 17 18 18 16 15 11 12 16 10 34 32 23 19 16 42 41 41 35 34 22 14 19 19 10 3 7 10 18 17 18
23 22 23 16 15 17 14 19 22 21 13 17 17 18 15 14 19 20 19 19 19 20 19 13 11 16 25 20 17 23 44 39 36 35 27 19 11 12 9 7 3 13 14 14 16
Wind_Direction
269 268 266 264 261 261 260 259 259 258 259 260 261 259 259 258 252 252 252 254 252 257 253 252 254 242 236 233 222 229 243 247 250 254 262 261 268 272 255 261 265 276 281 283 292
268 267 265 263 261 261 260 260 259 259 260 259 260 261 260 257 256 249 252 252 252 254 254 253 253 256 241 241 230 229 238 246 249 253 261 264 267 265 271 267 276 280 285 284 285
274 273 270 268 266 264 262 261 261 260 258 257 257 257 257 257 257 259 249 247 247 249 251 249 247 254 242 233 232 234 242 246 249 256 265 273 272 274 269 268 274 281 280 281 286
281 280 279 277 274 270 266 263 260 259 259 258 257 257 257 255 259 254 254 245 243 245 242 243 241 236 240 237 236 239 247 251 259 264 272 269 271 275 266 266 271 278 280 283 287
288 286 284 281 279 278 276 275 271 266 261 259 258 257 254 254 249 250 249 250 249 247 240 237 239 237 238 241 239 244 250 256 261 264 266 270 268 269 263 264 269 274 277 284 287
293 290 289 287 285 283 282 280 277 276 273 270 265 259 257 253 255 249 248 246 248 249 245 234 233 234 244 243 241 250 257 259 261 264 263 263 267 269 265 265 269 273 278 278 278
309 305 304 301 297 293 288 284 280 278 278 276 272 268 259 252 250 253 251 245 240 242 243 241 235 228 238 243 245 252 257 259 257 259 259 266 265 260 264 266 270 274 274 278 271
325 324 323 320 316 310 306 300 294 290 283 278 276 273 269 268 252 248 250 246 239 240 239 227 227 233 233 243 246 248 250 256 253 255 257 256 263 267 267 268 269 269 267 276 268
314 313 313 314 314 314 315 313 308 301 290 281 281 277 289 283 283 257 245 245 241 233 236 229 229 225 229 233 243 241 242 244 258 254 256 251 259 268 272 273 268 267 271 267 264
310 307 306 304 301 299 301 306 308 307 293 284 275 283 279 286 247 235 240 237 233 228 226 222 224 228 228 223 228 230 239 249 256 255 254 257 258 267 269 267 270 270 266 269 266
320 314 309 305 302 301 299 299 318 325 290 255 270 267 242 267 278 265 270 257 245 225 221 218 214 220 225 224 234 240 245 250 253 258 253 258 264 266 269 268 269 268 264 266 269
334 329 323 318 315 313 313 307 297 291 277 273 276 274 270 267 265 258 255 246 237 234 225 212 219 230 227 230 235 238 244 249 255 257 263 267 268 266 266 267 264 266 268 268 270
333 330 325 322 318 315 320 303 300 300 289 291 277 264 261 253 261 264 239 236 235 234 224 219 228 227 227 228 232 235 237 246 252 262 264 267 269 268 268 269 273 272 270 268 264
332 330 329 327 333 328 337 312 318 311 297 291 240 275 211 240 262 247 234 231 234 235 228 231 232 228 228 229 227 237 235 246 255 261 260 258 269 267 271 274 273 272 265 263 262
338 337 336 332 331 334 311 319 313 326 284 181 196 198 192 239 277 239 240 239 233 230 224 232 228 225 228 228 224 236 235 241 245 253 262 257 261 272 274 276 277 277 271 264 257
345 343 343 340 346 342 330 321 316 259 246 217 206 240 242 251 253 258 259 259 248 242 228 239 230 228 229 226 228 233 234 239 243 249 250 249 257 271 274 280 281 285 266 263 252
350 348 345 350 351 336 328 319 258 243 313 351 327 321 292 277 266 258 257 252 240 224 233 235 233 230 224 223 222 219 219 225 230 231 245 250 249 260 276 268 277 282 265 239 207
352 347 347 356 349 358 321 303 251 344 3 317 311 305 288 277 261 256 249 256 250 250 256 230 232 223 216 220 213 213 207 209 218 217 236 232 244 258 268 277 270 272 221 222 226
353 346 356 356 347 354 358 282 336 354 335 323 310 300 277 288 260 254 254 261 251 279 262 244 240 226 219 215 212 211 211 214 240 221 251 245 219 256 276 282 251 215 205 210 223
355 359 352 341 355 355 356 334 342 337 331 316 306 287 317 310 294 269 270 261 278 281 253 259 254 226 217 216 219 213 213 211 223 239 220 236 252 262 242 282 203 191 195 201 219
359 345 314 340 351 355 331 331 323 327 326 311 309 308 307 313 285 289 272 276 286 302 246 250 260 234 217 213 211 205 210 212 215 224 229 245 257 249 252 217 223 208 201 223 195
5 0 320 344 337 336 331 319 319 313 312 314 308 302 306 315 299 285 260 291 270 296 256 233 256 254 223 214 207 204 205 202 211 209 230 211 231 193 100 207 220 186 200 196 198
11 351 333 14 342 328 332 327 330 319 314 312 307 315 313 306 302 293 319 295 253 277 256 224 234 260 202 204 201 206 206 204 211 213 206 227 250 173 158 149 190 193 175 175 181
24 354 320 322 336 327 326 335 337 333 316 312 308 301 298 319 309 286 327 334 342 302 284 223 240 241 233 212 194 204 200 204 201 212 197 212 192 152 151 112 99 165 172 166 172
1 322 331 324 319 326 321 313 325 328 328 317 308 305 314 312 308 307 323 309 301 313 303 224 230 230 263 269 199 200 199 195 195 202 214 191 214 179 168 152 62 164 159 169 176
359 346 344 342 321 326 326 331 330 331 332 328 322 317 309 302 301 302 303 295 301 315 305 237 247 227 249 287 270 201 205 200 196 199 201 198 203 199 208 155 92 155 165 174 179
354 354 345 357 330 324 324 319 323 324 331 325 315 312 314 305 297 285 281 276 270 280 299 292 249 227 245 246 215 212 197 196 197 201 198 191 162 155 135 119 97 129 175 180 185